Regional Weather Roundup
Issued by NWS Bismarck, ND

Home | Current Version | Previous Version | Text Only | Print | Product List | Glossary On
Versions: 1 2 3 4 5 6 7 8 9 10 11 12 13 14 15 16 17 18 19 20 21 22 23 24 25 26 27 28 29 30 31 32 33 34 35 36 37 38 39 40 41 42 43 44 45 46 47 48 49 50
000
ASUS43 KBIS 290210
RWRBIS

NWR BROADCAST TEXT
NATIONAL WEATHER SERVICE BISMARCK ND
900 PM CDT FRI AUG 28 2015

NOTE: "FAIR" INDICATES FEW OR NO CLOUDS BELOW 12,000 FEET WITH NO
SIGNIFICANT WEATHER AND/OR OBSTRUCTIONS TO VISIBILITY.


CITY           SKY/WX    TMP DP  RH WIND       PRES   REMARKS
WILLISTON      CLOUDY    71  48  43 W8        29.90R HAZE
MINOT          PTCLDY    70  62  76 N3        29.87R
MINOT AFB      PTCLDY    73  61  67 E2        29.86R
BISMARCK       PTCLDY    72  66  81 SE7       29.89R
DICKINSON      PTCLDY    71  52  50 W6        29.94R
GARRISON         N/A     76  31  19 CALM      29.89R
HETTINGER ARPT CLOUDY    69  54  58 W3        29.98R HAZE
JAMESTOWN      CLEAR     73  68  84 S7        29.89R
CROSBY         FAIR      68  54  60 W10       29.88R HAZE
HARVEY         FAIR      68  64  88 SE3       29.89R
HAZEN          FAIR      68  59  73 SE7       29.90R
LINTON         FAIR      72  72 100 SE10      29.92R
OAKES            N/A     70  59  68 S8        29.94R
RUGBY          FAIR      70  64  83 CALM      29.88R
STANLEY        FAIR      72  55  56 SW3       29.91R
$$

CITY           SKY/WX    TMP DP  RH WIND       PRES   REMARKS
GRAND FORKS    PTCLDY    72  67  84 S7        29.85R
GRAND FORKS AF CLEAR     73  69  87 S9        29.86R
DEVILS LAKE    PTCLDY    73  63  68 SW7       29.87R
FARGO          CLEAR     76  65  68 S14       29.91R
CAVALIER       FAIR      70  66  88 NW3       29.85R
GRAFTON        FAIR      73  70  88 NW5       29.84R
GWINNER          N/A     70  70 100 S7        29.95R
LANGDON        FAIR      72  66  83 NE6       29.88R
ROLLA          FAIR      63  63 100 N6        29.91R
WALHALLA       FAIR      70  70 100 MISG      29.86R
$$

CITY           SKY/WX    TMP DP  RH WIND       PRES   REMARKS
ABERDEEN       CLEAR     67  65  93 S7        29.96R
MOBRIDGE       PTCLDY    72  69  90 SE8       29.92R
BUFFALO          N/A     74  52  46 W5        29.95R
RAPID CITY     CLEAR     73  60  63 CALM      30.04R
GLASGOW        CLOUDY    75  39  27 N5        29.90S HAZE
SIDNEY         PTCLDY    72  46  40 CALM      29.91R
WOLF POINT     CLOUDY    70  48  45 SW5       29.90R HAZE
GLENDIVE       CLOUDY    79  41  25 CALM      29.95S
MILES CITY     CLOUDY    78  41  26 SW8       29.96R HAZE
BAKER          CLOUDY    72  49  44 CALM      30.00R HAZE
$$

CITY           SKY/WX    TMP DP  RH WIND       PRES   REMARKS
BILLINGS       MOCLDY    83  39  21 SE5       30.01R HAZE
GREAT FALLS    CLOUDY    81  36  19 W18       29.94R HAZE
REGINA         CLOUDY    68  57  68 SW2       29.85S SMOKE
ESTEVAN        CLOUDY    70  61  73 SE6       29.87R SMOKE
$$



USA.gov is the U.S. government's official web portal to all federal, state and local government web resources and services.